| time (UTC) | temp F | wind direction | speed knots | gust knots | rain 1hr in | rain 24hr in | rain mn in | humidity % | barometer mb |
| 20260503204623 | 80 | 132 | 8.7 | 11.3 | 0.00 | 0.00 | 0.00 | 42 | 1018.1 |
| 20260503203623 | 80 | 130 | 4.3 | 9.6 | 0.00 | 0.00 | 0.00 | 38 | 1018.1 |
| 20260503201623 | 79 | 178 | 4.3 | 13.9 | 0.00 | 0.00 | 0.00 | 41 | 1018.8 |
| 20260503195623 | 79 | 168 | 4.3 | 9.6 | 0.00 | 0.00 | 0.00 | 41 | 1019.1 |
| 20260503194623 | 78 | 101 | 8.7 | 10.4 | 0.00 | 0.00 | 0.00 | 40 | 1019.0 |
| 20260503193623 | 79 | 132 | 10.4 | 13.0 | 0.00 | 0.00 | 0.00 | 38 | 1019.3 |
| 20260503192623 | 78 | 173 | 6.1 | 12.2 | 0.00 | 0.00 | 0.00 | 39 | 1019.5 |
| 20260503191623 | 78 | 132 | 7.0 | 11.3 | 0.00 | 0.00 | 0.00 | 37 | 1019.6 |
| 20260503190623 | 78 | 132 | 2.6 | 8.7 | 0.00 | 0.00 | 0.00 | 43 | 1019.6 |
| 20260503185623 | 78 | 142 | 2.6 | 9.6 | 0.00 | 0.00 | 0.00 | 39 | 1020.0 |
| 20260503184623 | 78 | 132 | 7.8 | 13.0 | 0.00 | 0.00 | 0.00 | 42 | 1020.2 |
| 20260503183623 | 78 | 140 | 4.3 | 12.2 | 0.00 | 0.00 | 0.00 | 41 | 1020.2 |
| 20260503181623 | 77 | 142 | 3.5 | 9.6 | 0.00 | 0.00 | 0.00 | 41 | 1020.5 |
| 20260503180623 | 77 | 189 | 6.1 | 10.4 | 0.00 | 0.00 | 0.00 | 45 | 1020.9 |
| 20260503175623 | 77 | 114 | 2.6 | 8.7 | 0.00 | 0.00 | 0.00 | 43 | 1021.0 |
| 20260503174623 | 77 | 178 | 3.5 | 10.4 | 0.00 | 0.00 | 0.00 | 40 | 1021.2 |
| 20260503173623 | 77 | 146 | 3.5 | 9.6 | 0.00 | 0.00 | 0.00 | 42 | 1021.2 |
| 20260503172623 | 77 | 249 | 4.3 | 9.6 | 0.00 | 0.00 | 0.00 | 42 | 1021.4 |
| 20260503171623 | 77 | 101 | 3.5 | 10.4 | 0.00 | 0.00 | 0.00 | 39 | 1021.4 |
| 20260503170623 | 77 | 189 | 2.6 | 7.8 | 0.00 | 0.00 | 0.00 | 41 | 1021.6 |
| 20260503150623 | 72 | 198 | 6.1 | 8.7 | 0.00 | 0.00 | 0.00 | 56 | 1022.2 |
| 20260503130623 | 61 | 220 | 3.5 | 4.3 | 0.00 | 0.00 | 0.00 | 73 | 1021.6 |
| 20260503110623 | 53 | 229 | 0.0 | 0.0 | 0.00 | 0.00 | 0.00 | 81 | 1020.6 |
| 20260503081622 | 58 | 230 | 0.0 | 0.0 | 0.00 | 0.00 | 0.00 | 77 | 1020.3 |
| 20260503080623 | 56 | 230 | 0.0 | 1.7 | 0.00 | 0.00 | 0.00 | 80 | 1020.3 |
| 20260503071622 | 59 | 230 | 0.0 | 0.0 | 0.00 | 0.00 | 0.00 | 73 | 1020.6 |
| 20260503070622 | 60 | 230 | 0.0 | 1.7 | 0.00 | 0.00 | 0.00 | 73 | 1020.7 |
| 20260503053623 | 62 | 229 | 1.7 | 2.6 | 0.00 | 0.00 | 0.00 | 68 | 1021.0 |
| 20260503051622 | 62 | 196 | 1.7 | 2.6 | 0.00 | 0.00 | 0.00 | 68 | 1021.0 |
| 20260503050622 | 62 | 193 | 1.7 | 2.6 | 0.00 | 0.00 | 0.00 | 68 | 1020.9 |
| 20260503045622 | 62 | 193 | 0.9 | 2.6 | 0.00 | 0.00 | 0.01 | 68 | 1020.8 |
| 20260503043622 | 62 | 200 | 2.6 | 2.6 | 0.00 | 0.00 | 0.01 | 70 | 1020.9 |
| 20260503042622 | 60 | 210 | 1.7 | 2.6 | 0.00 | 0.00 | 0.01 | 73 | 1020.8 |
| 20260503041622 | 60 | 117 | 0.0 | 0.0 | 0.00 | 0.00 | 0.01 | 73 | 1020.7 |
| 20260503040623 | 60 | 117 | 0.0 | 0.0 | 0.00 | 0.00 | 0.01 | 73 | 1020.7 |
| 20260503035622 | 61 | 117 | 0.0 | 0.0 | 0.00 | 0.00 | 0.01 | 72 | 1020.7 |
| 20260503034622 | 61 | 117 | 0.0 | 0.0 | 0.00 | 0.00 | 0.01 | 72 | 1020.6 |
| 20260503033622 | 61 | 117 | 0.0 | 0.0 | 0.00 | 0.00 | 0.01 | 73 | 1020.5 |
| 20260503032622 | 61 | 117 | 0.0 | 0.0 | 0.00 | 0.00 | 0.01 | 73 | 1020.5 |
| 20260503025622 | 62 | 117 | 0.0 | 0.0 | 0.00 | 0.00 | 0.01 | 72 | 1020.3 |
| 20260503024622 | 62 | 117 | 0.0 | 0.0 | 0.00 | 0.00 | 0.01 | 71 | 1020.1 |
| 20260503023622 | 62 | 117 | 0.0 | 0.0 | 0.00 | 0.00 | 0.01 | 70 | 1019.8 |
| 20260503022622 | 63 | 117 | 0.0 | 0.0 | 0.00 | 0.00 | 0.01 | 69 | 1019.7 |
| 20260503021622 | 64 | 117 | 0.0 | 0.0 | 0.00 | 0.00 | 0.01 | 68 | 1019.6 |
| 20260503020622 | 64 | 117 | 0.0 | 0.0 | 0.00 | 0.00 | 0.01 | 66 | 1019.6 |
| 20260503014623 | 66 | 117 | 0.0 | 0.0 | 0.00 | 0.00 | 0.01 | 63 | 1019.5 |
| 20260503013622 | 66 | 117 | 0.0 | 0.0 | 0.00 | 0.00 | 0.01 | 63 | 1019.5 |
| 20260503012622 | 67 | 117 | 0.0 | 0.0 | 0.00 | 0.00 | 0.01 | 62 | 1019.5 |
| 20260503011622 | 68 | 117 | 0.0 | 0.0 | 0.00 | 0.00 | 0.01 | 61 | 1019.3 |
| 20260503010622 | 69 | 117 | 0.0 | 0.0 | 0.00 | 0.00 | 0.01 | 59 | 1019.3 |
| 20260503005622 | 70 | 117 | 0.0 | 1.7 | 0.00 | 0.00 | 0.01 | 57 | 1019.3 |
| 20260503004622 | 70 | 95 | 1.7 | 2.6 | 0.00 | 0.00 | 0.01 | 54 | 1019.2 |
| 20260503003622 | 71 | 102 | 0.0 | 3.5 | 0.00 | 0.00 | 0.01 | 53 | 1019.2 |
| 20260503002622 | 72 | 92 | 1.7 | 5.2 | 0.00 | 0.00 | 0.01 | 50 | 1019.2 |
| 20260503001622 | 72 | 92 | 0.9 | 2.6 | 0.00 | 0.00 | 0.01 | 51 | 1019.1 |
| 20260503000622 | 72 | 100 | 2.6 | 3.5 | 0.00 | 0.00 | 0.01 | 49 | 1019.1 |
| 20260502234622 | 73 | 26 | 3.5 | 5.2 | 0.00 | 0.00 | 0.01 | 46 | 1019.0 |
| 20260502231622 | 74 | 33 | 1.7 | 7.0 | 0.00 | 0.00 | 0.01 | 41 | 1018.9 |
| 20260502230622 | 74 | 44 | 2.6 | 8.7 | 0.00 | 0.00 | 0.01 | 42 | 1018.9 |
| 20260502224622 | 75 | 106 | 1.7 | 7.8 | 0.00 | 0.00 | 0.01 | 41 | 1018.8 |
| 20260502223622 | 75 | 92 | 3.5 | 8.7 | 0.00 | 0.00 | 0.01 | 42 | 1018.9 |
| 20260502222622 | 74 | 96 | 3.5 | 9.6 | 0.00 | 0.00 | 0.01 | 42 | 1019.0 |
| 20260502221622 | 75 | 22 | 3.5 | 8.7 | 0.00 | 0.00 | 0.01 | 39 | 1019.1 |
| 20260502220622 | 75 | 80 | 3.5 | 7.8 | 0.00 | 0.00 | 0.01 | 39 | 1019.0 |
| 20260502214622 | 75 | 78 | 2.6 | 7.0 | 0.00 | 0.00 | 0.01 | 43 | 1019.2 |
| 20260502213622 | 75 | 77 | 3.5 | 8.7 | 0.00 | 0.00 | 0.01 | 43 | 1019.4 |
| 20260502212622 | 75 | 47 | 5.2 | 7.8 | 0.00 | 0.00 | 0.01 | 44 | 1019.5 |
| 20260502210622 | 75 | 52 | 2.6 | 7.8 | 0.00 | 0.00 | 0.01 | 44 | 1019.8 |
| 20260502205622 | 75 | 28 | 3.5 | 12.2 | 0.00 | 0.00 | 0.01 | 42 | 1020.1 |